Starlink 30372

operational
NORAD ID: 57789 Int'l Des: 2023-134 Owner: SPXS Country: US Constellation: starlink
LEOCIRCULAR

Starlink 30372について

説明を読み込み中...

リアルタイム位置

3D地球を読み込み中...

次回通過

高度履歴

Altitude vs Time

uPlot chart will show altitude changes over time

軌道要素

1 57789U 23134U 25354.47592096 .00001388 00000-0 59965-4 0 9998
2 57789 43.0032 165.7354 0001477 269.6877 90.3805 15.27584315128754
Epoch: Dec 20, 2025 • Age: 10 hours

現在のステータス

高度 484.1 km
速度 7.63 km/s
衛星直下点 28.20°N, 102.68°W
打ち上げ日 Sep 4, 2023
運用期間 2.2 years
タイプ internet

技術仕様

分類 Payload
質量 730.00 kg
乾燥質量 700.00 kg
総質量 730.00 kg
長さ 0.30 m
直径 4.10 m
スパン 29.00 m
形状 Box + pan
製造者 SPXS
バスタイプ Starlink V2M
フェーズステータス In Orbit
所有者/国 SPXS/US

大規模コンステレーション

Loading constellations...